Regional Weather Roundup
Issued by NWS

Home | Current Version | Previous Version | Text Only | Print | Product List | Glossary Off
Versions: 1 2 3 4 5 6 7 8 9 10 11 12 13 14 15 16 17 18 19 20 21 22 23 24 25 26 27 28 29 30 31 32 33 34 35 36 37 38 39 40 41 42 43 44 45 46 47 48 49 50

536
ASUS44 KLIX 231701
RWRLA
LOUISIANA WEATHER ROUNDUP
NATIONAL WEATHER SERVICE NEW ORLEANS LA
1200 PM CDT WED JUL 23 2014

NOTE: "FAIR" INDICATES FEW OR NO CLOUDS BELOW 12,000 FEET WITH NO
      SIGNIFICANT WEATHER AND/OR OBSTRUCTIONS TO VISIBILITY.
      SKY/WX - SKY CONDITION AND SIGNIFICANT WEATHER.
      TMP - AIR TEMPERATURE.    DP   - DEWPOINT TEMPERATURE.
      RH  - RELATIVE HUMIDITY.  PRES - PRESSURE.
      HX  - HEAT INDEX.         WCI  - WIND CHILL INDEX.

*  THESE STATIONS ARE NOT NWS OR FAA STATIONS AND ARE NOT UNDER
   NWS QUALITY CONTROL.

LAZ040-048-061>063-065-066-069-231800-
SOUTHEAST LOUISIANA

CITY           SKY/WX    TMP DP  RH WIND       PRES   REMARKS
N.O. AUDUBON     N/A     81  72  73 MISG        N/A
N.O. INTL ARPT LGT RAIN  77  72  84 CALM      30.06S
N.O. LAKEFRONT CLOUDY    79  72  79 S8        30.07S
N.O. DOWNTOWN* FAIR      81  70  69 S7        30.07S
SLIDELL        CLOUDY    81  70  69 S6        30.06S
BATON ROUGE    PTSUNNY   85  73  67 E6        30.06S
BOOTHVILLE     RAIN      75  72  90 SE6       30.09S FOG
BELLE CHASSE   CLOUDY    79  70  74 SE13      30.06S
BOGALUSA*        N/A     86  72  63 CALM      30.08S
GALLIANO*      NOT AVBL
NEW ROADS*     FAIR      84  71  65 N5        30.06S
GONZALES*      FAIR      86  74  66 E3        30.04F
HAMMOND*       MOSUNNY   88  70  55 W3        30.07F
HOUMA*         PTSUNNY   82  70  65 E5        30.07R
PORT FOURCHON* PTSUNNY   81  73  78 NE8       30.09R

$$

LAZ041-044-053-054-231800-
SOUTHWEST LOUISIANA

CITY           SKY/WX    TMP DP  RH WIND       PRES   REMARKS
LAKE CHARLES   MOSUNNY   89  72  56 VRB6      30.05S HX  96
LAFAYETTE      PTSUNNY   86  73  65 N7        30.05S
PATTERSON      MOSUNNY   86  75  70 NE7       30.09R HX  95
SALT POINT       N/A     86  77  74 VRB3      30.04R HX  97
NEW IBERIA     SUNNY     88  73  61 NE8       30.06S HX  95
CHENAULT AIRPK MOSUNNY   88  73  62 N9        30.06S HX  96

$$

LAZ027-028-231800-
CENTRAL LOUISIANA

CITY           SKY/WX    TMP DP  RH WIND       PRES   REMARKS
FORT POLK      MOSUNNY   87  71  58 VRB3      30.07F
ALEXANDRIA INT MOSUNNY   89  71  55 CALM      30.05F HX  95
ALEXANDRIA     SUNNY     89  72  56 VRB5      30.06F HX  96

$$

LAZ001-002-231800-
NORTHWEST LOUISIANA

CITY           SKY/WX    TMP DP  RH WIND       PRES   REMARKS
SHREVEPORT     PTSUNNY   87  69  54 VRB3      30.08S
BARKSDALE AFB  MOSUNNY   87  71  57 VRB1      30.08F
DTN SHREVEPORT SUNNY     88  68  51 CALM      30.08F

$$

LAZ014-016-231800-
NORTHEAST LOUISIANA

CITY           SKY/WX    TMP DP  RH WIND       PRES   REMARKS
MONROE         MOSUNNY   87  72  60 N6        30.07S
TALLULAH       PTSUNNY   84  73  69 CALM      30.07S

$$




USA.gov is the U.S. government's official web portal to all federal, state and local government web resources and services.